CZ-4 DEB, 26209

Orbit data source: Space-Track

CZ-4 DEB, 26209 is space debris in SSO originally from a launch on Thu, 14 Oct 1999 UTC launched from the Taiyaun Space Center, China (TSC). Debris objects in space refer to the collection of defunct objects orbiting the Earth. Examples of debris include non-operational satellites, rocket bodies, and fragments generated from explosions, collisions, or faulty payload assembly.

Loading next visibility...
Identifier
26209, 1999-057CX
Orbit
SSO
Country
Flag of CNCN / PRC
Related business
Manufacturer
Unknown
Mission
Spacecraft
Bus & Motor
Unknown
Mass
Unknown
Launch date (UTC)
1999-10-14 (26 years ago)
Launch vehicle
Unknown
Launch site
Taiyaun Space Center, China (TSC)
Object type
Payload
Rocket body
Debris
Shape & HBR
Unknown shape, 0.1 m
Radar Cross Section
Small (<0.1 m²)

Expand to show TLE details & history
Last TLE update: 18 hours ago

TLE from 18 hours ago
0 CZ-4 DEB
1 26209U 99057CX  25300.98540796  .00001636  00000-0  31018-3 0  9999
2 26209  98.6242  94.3433 0029319  89.1805  30.9227 14.65457844363310
Epoch: 2025-10-27T23:38Z
TLE epoch observation values (Epoch: 2025-10-27T23:38:59.247Z)
Latitude
58.7321°
Longitude
-102.59917°
Altitude
667.793 km
Speed
7.538 km/s
True Right ascension
19h 14m 54s
True Declination
58° 34' 38"
Sunlit
Object was in daylight at epoch
Visualization orbit readout
Latitude
Unknown
Longitude
Unknown
Altitude
Unknown
Speed
Unknown
Apparent Right ascension
Unknown
Apparent Declination
Unknown
Sunlit
N/A
Visualization observer readout
Local Sidereal Time
13:31:20
Azimuth
Unknown
Elevation
Unknown
Doppler factor
Unknown
Orbital elements
Apogee altitude
693.372 km
Perigee altitude
652.027 km
Semi-major axis
7,050.837 km
Eccentricity
0.00293
Inclination
98.6242°
RAAN
94.3433°
Arg. of periapsis
89.1805°
True anomaly
31.09589°
Mean anomaly
30.9227°
Eccentric anomaly
31.00924°
Mean motion
3.66591 °/min
Orbital period
98.2 mins
BSTAR
0.00031018
Loading maneuver chart data...
Computing Atmospheric mass density...
Loading historical data...
Loading historical data...
Loading historical data...
Loading historical data...
Loading historical data...
Loading historical data...
Loading historical data...

Documentation

Showing up to 5 results
|